Location: Poughquag
(41.6090°N, 73.6820°W)
Time: 16:08:08
(UTC-04:00)

STARLINK-1340 - Pass Details

Date: 29 May 2020
Orbit: 548 x 551 km, 53.0° (Epoch: 30 October)

Event Time Altitude Azimuth Distance (km) Brightness Sun altitude
Rises 03:02:07 0° 297° (WNW) 2,725 7.1 -19.9°
Reaches altitude 10° 03:05:02 10° 319° (NW) 1,832 6.5 -19.6°
Maximum altitude 03:07:46 17° 0° (N) 1,448 6.5 -19.3°
Drops below altitude 10° 03:10:31 10° 42° (NE) 1,835 7.5 -19.0°
Sets 03:13:27 0° 63° (ENE) 2,730 8.3 -18.7°
